Orbital Elements at Epoch 2459200.5 (2020-Dec-17.0) TDB
Reference: JPL 25 (heliocentric ecliptic J2000)
Element | Value | Uncertainty (1-sigma) | Units |
e | .230394570833966 | 4.1982e-08 | |
a | 2.581085787107158 | 1.052e-08 | au |
q | 1.986417634900955 | 1.1272e-07 | au |
i | 4.171016824766389 | 4.6003e-06 | deg |
node | 55.21967193787533 | 3.9908e-05 | deg |
peri | 26.71854126133822 | 4.1644e-05 | deg |
M | 153.9628944658122 | 1.1043e-05 | deg |
tp | 2458552.737723933184 (2019-Mar-10.23772393) | 4.3933e-05 | TDB |
period | 1514.61441533132 4.15 | 9.2599e-06 2.535e-08 | d yr |
n | .2376842557128644 | 1.4531e-09 | deg/d |
Q | 3.17575393931336 | 1.2944e-08 | au |
|
| | Orbit Determination Parameters
Additional Information
|